This is the latest recevied weather packets stored in our database for station/object C31FR-13. If no packets are shown the sender has not sent any weather packets the latest 10 day(s).
| Time | Temp. | Humidity | Pressure | Rain* | Wind** | Luminosity | Snow |
|---|---|---|---|---|---|---|---|
| 1788271262 | 27.22° C | 41% | 1021.4 hPa | - | - | - | - |
| 1788270363 | 27.22° C | 41% | 1021.6 hPa | - | - | - | - |
| 1788269461 | 26.11° C | 43% | 1021.7 hPa | - | - | - | - |
| 1788267662 | 26.67° C | 43% | 1021.6 hPa | - | - | - | - |
| 1788267362 | 26.67° C | 43% | 1021.6 hPa | - | - | - | - |
| 1788265563 | 26.67° C | 41% | 1021.9 hPa | - | - | - | - |
| 1788263462 | 26.11° C | 41% | 1022.1 hPa | - | - | - | - |
| 1788262862 | 25.56° C | 42% | 1022.2 hPa | - | - | - | - |
| 1788262262 | 25.56° C | 42% | 1022.1 hPa | - | - | - | - |
| 1788260762 | 25° C | 43% | 1022 hPa | - | - | - | - |
| 1788259562 | 24.44° C | 45% | 1022.1 hPa | - | - | - | - |
| 1788258062 | 23.33° C | 49% | 1022.5 hPa | - | - | - | - |
| 1788255362 | 22.22° C | 54% | 1023.4 hPa | - | - | - | - |
| 1788254762 | 21.67° C | 59% | 1023.5 hPa | - | - | - | - |
| 1788254462 | 22.22° C | 58% | 1023.6 hPa | - | - | - | - |
| 1788254162 | 22.22° C | 58% | 1023.6 hPa | - | - | - | - |
| 1788253562 | 21.67° C | 58% | 1023.6 hPa | - | - | - | - |
| 1788253262 | 21.11° C | 58% | 1023.7 hPa | - | - | - | - |
| 1788252663 | 21.11° C | 60% | 1023.7 hPa | - | - | - | - |
| 1788251763 | 20.56° C | 60% | 1023.7 hPa | - | - | - | - |
| 1788251162 | 20.56° C | 60% | 1023.7 hPa | - | - | - | - |
| 1788248761 | 20° C | 60% | 1023.8 hPa | - | - | - | - |
| 1788244862 | 18.89° C | 65% | 1024 hPa | - | - | - | - |
| 1788242762 | 18.33° C | 66% | 1024 hPa | - | - | - | - |
| 1788242162 | 18.33° C | 66% | 1023.9 hPa | - | - | - | - |
* Rain since midnight (hover to see other rain measurements)
** Current wind speed in m/s (hover to see current wind gust speed)